Location: *
(50.5492°N, 7.7469°E)
Time: 01:59:09
(UTC+00:00)

YAOGAN 1 - Pass Details

Date: 21 October 2019
Orbit: 619 x 621 km, 98.0° (Epoch: 12 November)

Event Time Altitude Azimuth Distance (km) Brightness Sun altitude
Rises 17:39:40 0° 161° (SSE) 2,887 5.8 -12.4°
Reaches altitude 10° 17:41:51 10° 160° (SSE) 1,985 5.0 -12.8°
Maximum altitude 17:46:10 80° 74° (ENE) 636 2.5 -13.5°
Drops below altitude 10° 17:50:31 10° 348° (NNW) 2,000 5.3 -14.1°
Sets 17:52:43 0° 347° (NNW) 2,911 6.2 -14.5°
